Date String (YYYY-MM-DD hh:mm:ss) UTC,Instrument flags,Ambient pressure (hPa),Sample flow (lpm),Bypass flow (lpm),Sample temperature (°C),Ambient temperature (°C),ASC tube jacket temperature (°C),LED temperature (°C),Box temperature (°C),Sample RH (%),Span deviation,Mass concentration (μg/m³),Mass concentration (μg/m³),Mass concentration (μg/m³)
DateTimeUTC,F1_M11,P_M11,Q1_M11,Q2_M11,T1_M11,T2_M11,T3_M11,T4_M11,T5_M11,U1_M11,ZSPAN_M11,X0_M11,X2_M11,X1_M11
2022-12-17 22:00:00,,0822.1,5.05,0.00,23.5,22.1,00.0,32.3,25.3,04.5,0000.0,0010.74,0003.20,0002.31
2022-12-17 22:01:00,,0822.2,4.97,0.00,23.5,22.1,00.0,32.3,25.3,04.5,0000.0,0010.15,0003.18,0002.30
2022-12-17 22:02:00,,0822.2,5.00,0.00,23.5,22.1,00.0,32.3,25.3,04.5,0000.0,0009.25,0003.17,0002.29
2022-12-17 22:03:00,,0822.1,5.04,0.00,23.5,22.1,00.0,32.3,25.3,04.5,0000.0,0009.37,0003.16,0002.28
2022-12-17 22:04:00,,0822.1,4.95,0.00,23.5,22.1,00.0,32.3,25.3,04.5,0000.0,0009.44,0003.16,0002.28
2022-12-17 22:05:00,,0822.1,5.05,0.00,23.5,22.1,00.0,32.3,25.3,04.5,0000.0,0009.29,0003.14,0002.27
2022-12-17 22:06:00,,0822.1,4.98,0.00,23.5,22.1,00.0,32.3,25.3,04.5,0000.0,0008.57,0003.12,0002.24
2022-12-17 22:07:00,,0822.1,5.00,0.00,23.5,22.1,00.0,32.3,25.3,04.5,0000.0,0008.04,0003.12,0002.22
2022-12-17 22:08:00,,0822.1,5.02,0.00,23.5,22.1,00.0,32.3,25.3,04.5,0000.0,0007.76,0003.07,0002.22
2022-12-17 22:09:00,,0822.2,4.98,0.00,23.5,22.1,00.0,32.3,25.2,04.5,0000.0,0007.61,0002.99,0002.23
2022-12-17 22:10:00,,0822.1,5.02,0.00,23.5,22.1,00.0,32.3,25.3,04.5,0000.0,0007.15,0002.98,0002.22
2022-12-17 22:11:00,,0822.1,5.00,0.00,23.5,22.2,00.0,32.3,25.2,04.5,0000.0,0006.79,0002.97,0002.21
2022-12-17 22:12:00,,0822.1,4.99,0.00,23.5,22.2,00.0,32.3,25.3,04.5,0000.0,0007.50,0002.96,0002.19
2022-12-17 22:13:00,,0822.1,5.01,0.00,23.5,22.2,00.0,32.3,25.3,04.5,0000.0,0008.10,0002.93,0002.20
2022-12-17 22:14:00,,0822.1,4.97,0.00,23.5,22.2,00.0,32.3,25.3,04.5,0000.0,0008.31,0003.04,0002.21
2022-12-17 22:15:00,,0822.1,5.04,0.00,23.5,22.2,00.0,32.3,25.3,04.6,0000.0,0008.45,0003.05,0002.20
2022-12-17 22:16:00,,0822.2,4.98,0.00,23.5,22.2,00.0,32.3,25.3,04.6,0000.0,0008.37,0003.01,0002.20
2022-12-17 22:17:00,,0822.2,4.98,0.00,23.5,22.2,00.0,32.3,25.3,04.5,0000.0,0008.30,0003.04,0002.22
2022-12-17 22:18:00,,0822.2,5.04,0.00,23.5,22.2,00.0,32.3,25.3,04.5,0000.0,0009.45,0003.09,0002.23
2022-12-17 22:19:00,,0822.2,4.95,0.00,23.5,22.2,00.0,32.3,25.3,04.5,0000.0,0009.80,0003.15,0002.24
2022-12-17 22:20:00,,0822.2,5.04,0.00,23.5,22.2,00.0,32.3,25.4,04.5,0000.0,0011.30,0003.17,0002.23
2022-12-17 22:21:00,,0822.1,4.97,0.00,23.5,22.2,00.0,32.3,25.3,04.6,0000.0,0011.51,0003.18,0002.25
2022-12-17 22:22:00,,0822.1,4.98,0.00,23.5,22.1,00.0,32.3,25.3,04.6,0000.0,0012.21,0003.21,0002.24
2022-12-17 22:23:00,,0822.2,5.04,0.00,23.5,22.1,00.0,32.3,25.2,04.6,0000.0,0012.60,0003.21,0002.25
2022-12-17 22:24:00,,0822.2,4.98,0.00,23.4,22.1,00.0,32.3,25.2,04.6,0000.0,0012.52,0003.23,0002.25
2022-12-17 22:25:00,,0822.2,4.97,0.00,23.4,22.1,00.0,32.3,25.2,04.6,0000.0,0012.26,0003.19,0002.22
2022-12-17 22:26:00,,0822.2,5.04,0.00,23.4,22.0,00.0,32.3,25.2,04.5,0000.0,0012.23,0003.18,0002.20
2022-12-17 22:27:00,,0822.2,4.97,0.00,23.4,22.0,00.0,32.3,25.2,04.6,0000.0,0012.58,0003.20,0002.17
2022-12-17 22:28:00,,0822.2,4.99,0.00,23.4,22.0,00.0,32.3,25.2,04.6,0000.0,0012.45,0003.19,0002.15
2022-12-17 22:29:00,,0822.2,5.03,0.00,23.4,22.0,00.0,32.3,25.2,04.6,0000.0,0010.98,0003.15,0002.12
2022-12-17 22:30:00,,0822.2,4.97,0.00,23.4,22.0,00.0,32.3,25.2,04.6,0000.0,0011.37,0003.10,0002.08
2022-12-17 22:31:00,,0822.2,5.03,0.00,23.3,21.9,00.0,32.3,25.1,04.5,0000.0,0010.78,0003.07,0002.04
2022-12-17 22:32:00,,0822.2,4.97,0.00,23.3,21.8,00.0,32.3,25.1,04.6,0000.0,0010.98,0003.05,0002.00
2022-12-17 22:33:00,,0822.3,5.05,0.00,23.3,21.8,00.0,32.2,25.1,04.6,0000.0,0011.13,0003.00,0001.98
2022-12-17 22:34:00,,0822.3,4.97,0.00,23.3,21.8,00.0,32.2,25.1,04.6,0000.0,0010.60,0003.05,0001.97
2022-12-17 22:35:00,,0822.3,4.97,0.00,23.3,21.8,00.0,32.2,25.1,04.6,0000.0,0011.68,0003.09,0001.97
2022-12-17 22:36:00,,0822.3,5.05,0.00,23.3,21.8,00.0,32.2,25.1,04.6,0000.0,0012.52,0003.10,0001.97
2022-12-17 22:37:00,,0822.3,4.97,0.00,23.3,21.8,00.0,32.2,25.1,04.7,0000.0,0012.14,0003.08,0001.97
2022-12-17 22:38:00,,0822.3,4.98,0.00,23.3,21.8,00.0,32.2,25.1,04.6,0000.0,0011.85,0003.08,0001.98
2022-12-17 22:39:00,,0822.4,5.02,0.00,23.3,21.8,00.0,32.2,25.1,04.7,0000.0,0012.24,0003.08,0001.97
2022-12-17 22:40:00,,0822.4,4.97,0.00,23.3,21.9,00.0,32.2,25.1,04.7,0000.0,0012.45,0003.11,0001.94
2022-12-17 22:41:00,,0822.4,5.02,0.00,23.3,21.9,00.0,32.2,25.1,04.7,0000.0,0011.87,0003.09,0001.94
2022-12-17 22:42:00,,0822.3,4.99,0.00,23.3,21.9,00.0,32.2,25.1,04.7,0000.0,0010.89,0003.08,0001.93
2022-12-17 22:43:00,,0822.3,4.97,0.00,23.3,21.8,00.0,32.2,25.1,04.7,0000.0,0011.21,0003.11,0001.93
2022-12-17 22:44:00,,0822.3,5.04,0.00,23.3,21.8,00.0,32.2,25.1,04.7,0000.0,0010.71,0003.13,0001.93
2022-12-17 22:45:00,,0822.4,4.96,0.00,23.2,21.8,00.0,32.1,25.0,04.7,0000.0,0011.14,0003.12,0001.90
2022-12-17 22:46:00,,0822.3,5.05,0.00,23.2,21.8,00.0,32.1,25.0,04.7,0000.0,0011.01,0003.11,0001.87
2022-12-17 22:47:00,,0822.4,4.97,0.00,23.2,21.8,00.0,32.1,25.0,04.7,0000.0,0009.47,0003.13,0001.85
2022-12-17 22:48:00,,0822.4,4.97,0.00,23.2,21.8,00.0,32.1,25.0,04.6,0000.0,0010.20,0003.13,0001.83
2022-12-17 22:49:00,,0822.4,5.06,0.00,23.2,21.8,00.0,32.1,25.0,04.6,0000.0,0011.09,0003.13,0001.81
2022-12-17 22:50:00,,0822.4,4.96,0.00,23.2,21.7,00.0,32.1,25.0,04.6,0000.0,0011.12,0003.13,0001.80
2022-12-17 22:51:00,,0822.4,5.04,0.00,23.2,21.7,00.0,32.1,25.0,04.6,0000.0,0010.79,0003.11,0001.80
2022-12-17 22:52:00,,0822.3,4.98,0.00,23.2,21.7,00.0,32.1,25.0,04.7,0000.0,0010.79,0003.13,0001.80
2022-12-17 22:53:00,,0822.4,4.98,0.00,23.2,21.6,00.0,32.1,25.0,04.7,0000.0,0010.91,0003.15,0001.79
2022-12-17 22:54:00,,0822.4,5.04,0.00,23.2,21.6,00.0,32.1,25.0,04.7,0000.0,0010.96,0003.12,0001.78
2022-12-17 22:55:00,,0822.4,4.97,0.00,23.2,21.7,00.0,32.1,25.0,04.7,0000.0,0010.53,0003.07,0001.76
2022-12-17 22:56:00,,0822.4,5.02,0.00,23.2,21.6,00.0,32.1,25.0,04.7,0000.0,0010.58,0003.03,0001.74
2022-12-17 22:57:00,,0822.4,5.01,0.00,23.1,21.6,00.0,32.1,24.9,04.7,0000.0,0010.29,0003.04,0001.74
2022-12-17 22:58:00,,0822.4,4.98,0.00,23.1,21.6,00.0,32.0,25.0,04.7,0000.0,0010.33,0002.97,0001.74
2022-12-17 22:59:00,,0822.4,5.03,0.00,23.1,21.6,00.0,32.0,24.9,04.7,0000.0,0010.00,0002.96,0001.74
